DW6654 Weather Reports


Display with metric or nautical units.
time (UTC)temp
F
wind
direction
speed
MPH
gust
MPH
rain 1hr
in
rain 24hr
in
rain mn
in
humidity
%
barometer
mb
20260510230059 63 196 0.0 0.0 0.00 0.02 0.01 68 1012.5
20260510224559 63 234 0.0 7.0 0.00 0.02 0.01 68 1012.3
20260510223100 65 186 4.0 10.0 0.00 0.02 0.01 55 1012.2
20260510221601 66 139 4.0 14.0 0.00 0.02 0.01 45 1012.0
20260510220059 67 194 4.0 12.0 0.00 0.11 0.01 46 1011.5
20260510214556 67 194 5.0 14.0 0.00 0.11 0.01 44 1011.2
20260510213100 68 317 3.0 9.0 0.00 0.11 0.01 49 1011.0
20260510211554 68 208 0.0 6.0 0.00 0.11 0.01 51 1010.9
20260510210056 68 176 4.0 11.0 0.00 0.18 0.01 49 1011.2
20260510204605 69 164 3.0 11.0 0.00 0.18 0.01 50 1011.0
20260510203051 68 175 2.0 9.0 0.00 0.18 0.01 52 1011.1
20260510201552 69 162 2.0 12.0 0.00 0.18 0.01 54 1011.0
20260510200050 69 161 3.0 9.0 0.00 0.22 0.01 54 1011.1
20260510194545 69 298 2.0 12.0 0.00 0.22 0.01 59 1011.2
20260510193044 68 355 4.0 10.0 0.00 0.22 0.01 61 1011.3
20260510191644 66 295 5.0 10.0 0.00 0.22 0.01 62 1011.4
20260510190046 68 179 2.0 11.0 0.00 0.25 0.01 57 1011.4
20260510184541 67 175 4.0 14.0 0.00 0.25 0.01 59 1011.3
20260510183045 67 153 1.0 8.0 0.00 0.25 0.01 61 1011.3
20260510181548 68 165 3.0 13.0 0.00 0.25 0.01 58 1011.5
20260510180043 67 186 6.0 16.0 0.00 0.35 0.01 58 1011.6
20260510174543 67 155 7.0 24.0 0.00 0.35 0.01 60 1011.6
20260510173046 67 201 4.0 15.0 0.00 0.35 0.01 60 1011.7
20260510171537 68 147 5.0 13.0 0.00 0.35 0.01 60 1011.8
20260510170035 67 284 5.0 12.0 0.00 0.43 0.01 60 1011.8
20260510164539 66 211 3.0 15.0 0.00 0.43 0.01 66 1012.1
20260510163029 66 196 6.0 13.0 0.00 0.43 0.01 64 1012.2
20260510161524 64 229 4.0 12.0 0.00 0.43 0.01 68 1012.3
20260510160023 64 181 3.0 9.0 0.00 0.49 0.01 74 1012.3
20260510154522 63 205 2.0 12.0 0.00 0.49 0.01 74 1012.4
20260510153032 62 109 4.0 10.0 0.00 0.49 0.01 77 1012.4
20260510151513 61 115 3.0 9.0 0.01 0.49 0.01 77 1012.5
20260510150010 60 153 2.0 8.0 0.01 0.52 0.01 80 1012.4
20260510144514 59 154 2.0 8.0 0.01 0.52 0.01 83 1012.6
20260510143003 58 166 3.0 9.0 0.01 0.52 0.01 86 1012.7
20260510141559 56 121 3.0 6.0 0.00 0.51 0.00 89 1012.7
20260510140058 56 130 3.0 8.0 0.00 0.54 0.00 87 1012.7
20260510134555 55 111 3.0 7.0 0.00 0.54 0.00 92 1012.7
20260510133051 53 143 2.0 6.0 0.00 0.54 0.00 93 1012.7
20260510131550 52 128 2.0 4.0 0.00 0.54 0.00 94 1012.7
20260510130048 52 143 1.0 4.0 0.00 0.56 0.00 94 1012.7
20260510124549 52 128 2.0 6.0 0.00 0.56 0.00 94 1012.6
20260510123043 51 153 1.0 6.0 0.00 0.56 0.00 95 1012.6
20260510121547 51 146 3.0 9.0 0.00 0.56 0.00 95 1012.7
20260510120040 51 142 0.0 4.0 0.00 0.56 0.00 96 1012.7
20260510114539 50 144 2.0 11.0 0.00 0.56 0.00 96 1012.6
20260510113041 50 140 1.0 8.0 0.00 0.56 0.00 97 1012.5
20260510111538 50 127 3.0 9.0 0.00 0.56 0.00 98 1012.4
20260510110040 50 150 1.0 7.0 0.00 0.56 0.00 98 1012.4
20260510104532 50 140 2.0 4.0 0.00 0.56 0.00 98 1012.3
20260510103041 49 128 3.0 5.0 0.00 0.56 0.00 98 1012.1
20260510101531 49 180 0.0 4.0 0.00 0.56 0.00 98 1012.0
20260510100033 49 159 2.0 5.0 0.00 0.56 0.00 98 1011.7
20260510094526 49 128 2.0 4.0 0.00 0.56 0.00 98 1011.4
20260510093025 47 120 2.0 3.0 0.00 0.56 0.00 98 1011.4
20260510091520 47 104 0.0 0.0 0.00 0.56 0.00 98 1011.7
20260510090020 46 104 0.0 1.0 0.00 0.56 0.00 98 1011.8
20260510084518 46 104 0.0 0.0 0.00 0.56 0.00 98 1011.7
20260510083029 46 104 0.0 0.0 0.00 0.56 0.00 98 1012.0
20260510081520 46 104 0.0 0.0 0.00 0.56 0.00 98 1011.8
20260510080022 46 104 0.0 1.0 0.00 0.56 0.00 97 1011.7
20260510074516 46 104 0.0 2.0 0.00 0.56 0.00 98 1011.8
20260510073017 47 104 0.0 0.0 0.00 0.56 0.00 98 1011.6
20260510071516 47 104 0.0 0.0 0.00 0.56 0.00 98 1011.5
20260510070023 47 104 0.0 1.0 0.00 0.56 0.00 98 1011.7
20260510064518 47 104 0.0 0.0 0.00 0.56 0.00 98 1011.8
20260510063013 47 104 0.0 2.0 0.00 0.56 0.00 98 1011.7
20260510061511 47 104 0.0 1.0 0.00 0.56 0.00 98 1011.7
20260510060009 46 104 0.0 1.0 0.00 0.56 0.00 98 1012.0
20260510054515 46 104 0.0 2.0 0.00 0.56 0.00 98 1011.9
20260510053007 46 104 0.0 1.0 0.00 0.56 0.00 98 1012.0
20260510051512 46 104 0.0 3.0 0.00 0.56 0.00 97 1012.1
20260510050004 46 104 0.0 1.0 0.00 0.56 0.00 97 1012.2
20260510044503 46 104 0.0 0.0 0.00 0.56 0.00 98 1012.4
20260510043002 46 104 0.0 0.0 0.00 0.56 0.00 98 1012.3
20260510041612 46 104 0.0 0.0 0.00 0.56 0.00 97 1012.4
20260510040059 46 104 0.0 0.0 0.00 0.56 0.56 97 1012.3
20260510034557 45 104 0.0 0.0 0.00 0.56 0.56 97 1012.3
20260510033057 45 104 0.0 0.0 0.00 0.56 0.56 97 1012.6
20260510031600 46 104 0.0 0.0 0.00 0.56 0.56 97 1012.7
20260510030058 46 104 0.0 0.0 0.00 0.56 0.56 97 1012.9
20260510024559 45 104 0.0 0.0 0.00 0.56 0.56 97 1012.8
20260510023054 45 104 0.0 0.0 0.00 0.56 0.56 97 1013.1
20260510021553 45 104 0.0 0.0 0.00 0.56 0.56 97 1013.1
20260510020055 45 104 0.0 1.0 0.00 0.56 0.56 97 1013.1
20260510014552 45 104 0.0 1.0 0.00 0.56 0.56 97 1013.3
20260510013104 45 104 0.0 0.0 0.00 0.56 0.56 97 1013.2
20260510011551 45 104 0.0 0.0 0.00 0.56 0.56 97 1013.1
20260510004557 45 104 0.0 0.0 0.00 0.56 0.56 96 1013.0
20260510003049 45 104 0.0 1.0 0.00 0.56 0.56 96 1012.9
20260510001548 45 104 0.0 1.0 0.00 0.56 0.56 96 1012.9
20260510000048 45 104 0.0 1.0 0.00 0.56 0.56 96 1012.9
20260509234601 45 104 0.0 2.0 0.00 0.56 0.56 96 1012.9
20260509233046 45 101 0.0 0.0 0.00 0.56 0.56 96 1012.7
20260509231546 45 101 0.0 0.0 0.01 0.56 0.56 96 1012.7